Weather History for Wilkerson Pass, CO

Change the Weather History Date:

Thursday, March 27, 2014

  Actual Average (KAFF) Record (KAFF)
Temperature  
Mean Temperature 24 °F -  
Max Temperature 32 °F 51 °F 68 °F (1997)
Min Temperature 17 °F 27 °F 10 °F (2009)
Degree Days  
Heating Degree Days 40    
Moisture  
Dew Point 16 °F    
Average Humidity 78    
Maximum Humidity 93    
Minimum Humidity 47    
Precipitation  
Precipitation 0.00 in - - ()
Sea Level Pressure  
Sea Level Pressure 29.74 in    
Wind  
Wind Speed 9 mph (WSW)    
Max Wind Speed 15 mph    
Max Gust Speed 28 mph    
Visibility 9 miles    
Events Snow    
Averages and records for this station are not official NWS values.
T = Trace of Precipitation, MM = Missing Value Source: NWS Daily Summary

Daily Weather History Graph

Daily Weather History Graph

Search for Another Location

Airport:

Trip Planner

Search our weather history database for the weather conditions in past years. The results will help you decide how hot, cold, wet, or windy it might be!

Date:

Astronomy

Mar. 27, 2014 Rise Set
Actual Time 6:54 AM MDT 7:20 PM MDT
Civil Twilight 6:27 AM MDT 7:47 PM MDT
Nautical Twilight 5:56 AM MDT 8:19 PM MDT
Astronomical Twilight 5:24 AM MDT 8:51 PM MDT
Moon 4:45 AM MDT (3/27) 4:12 PM MDT (3/27)
Length of Visible Light 13h 20m
Length of Day
12h 26m
Waning Crescent, 12% of the Moon is Illuminated
Mar 27
Waning Crescent
Mar 30
New
Apr 7
First Quarter
Apr 15
Full
Apr 22
Last Quarter

Hourly Weather History & Observations

Time (MDT) Temp. Windchill Dew Point Humidity Pressure Visibility Wind Dir Wind Speed Gust Speed Precip Events Conditions
12:15 AM 21.2 °F 7.8 °F 19.4 °F 93% 29.50 in 1.0 mi SW 15.0 mph 27.6 mph N/A Snow Light Snow
12:35 AM 21.2 °F 9.5 °F 19.4 °F 93% 29.51 in 0.8 mi SW 11.5 mph 24.2 mph N/A   Overcast
12:55 AM 21.2 °F 10.9 °F 19.4 °F 93% 29.52 in 0.5 mi WSW 9.2 mph 17.3 mph N/A Snow Light Snow
1:15 AM 21.2 °F 12.6 °F 19.4 °F 93% 29.55 in 1.8 mi WSW 6.9 mph - N/A   Overcast
1:35 AM 21.2 °F 13.6 °F 19.4 °F 93% 29.55 in 4.0 mi WSW 5.8 mph - N/A   Overcast
1:55 AM 21.2 °F 13.6 °F 19.4 °F 93% 29.55 in 10.0 mi SW 5.8 mph - N/A   Mostly Cloudy
2:15 AM 21.2 °F 11.7 °F 19.4 °F 93% 29.55 in 7.0 mi SW 8.1 mph - N/A   Overcast
2:35 AM 21.2 °F 13.6 °F 19.4 °F 93% 29.55 in 10.0 mi WSW 5.8 mph - N/A   Overcast
2:55 AM 21.2 °F 13.6 °F 19.4 °F 93% 29.56 in 1.5 mi SW 5.8 mph - N/A   Overcast
3:15 AM 21.2 °F 11.7 °F 19.4 °F 93% 29.57 in 0.8 mi West 8.1 mph - N/A Snow Light Snow
3:35 AM 21.2 °F 10.1 °F 19.4 °F 93% 29.56 in 7.0 mi West 10.4 mph 18.4 mph N/A   Overcast
3:55 AM 21.2 °F 10.9 °F 17.6 °F 86% 29.57 in 10.0 mi WNW 9.2 mph 18.4 mph N/A   Scattered Clouds
4:15 AM 19.4 °F 7.9 °F 17.6 °F 93% 29.57 in 10.0 mi NW 10.4 mph 17.3 mph N/A   Clear
4:35 AM 19.4 °F 9.5 °F 17.6 °F 93% 29.59 in 10.0 mi NNW 8.1 mph 19.6 mph N/A   Clear
4:55 AM 19.4 °F 6.6 °F 17.6 °F 93% 29.59 in 10.0 mi NNW 12.7 mph 19.6 mph N/A   Clear
5:15 AM 19.4 °F 7.2 °F 17.6 °F 93% 29.61 in 10.0 mi NW 11.5 mph 19.6 mph N/A   Scattered Clouds
5:35 AM 19.4 °F 9.5 °F 17.6 °F 93% 29.62 in 10.0 mi NW 8.1 mph 18.4 mph N/A   Scattered Clouds
5:55 AM 19.4 °F 9.5 °F 17.6 °F 93% 29.62 in 10.0 mi West 8.1 mph - N/A   Mostly Cloudy
6:15 AM 19.4 °F 10.4 °F 17.6 °F 93% 29.62 in 10.0 mi West 6.9 mph - N/A   Scattered Clouds
6:35 AM 19.4 °F 8.6 °F 17.6 °F 93% 29.62 in 10.0 mi West 9.2 mph 20.7 mph N/A   Mostly Cloudy
6:55 AM 19.4 °F 7.2 °F 15.8 °F 86% 29.63 in 10.0 mi West 11.5 mph 23.0 mph N/A   Scattered Clouds
7:15 AM 19.4 °F 7.9 °F 15.8 °F 86% 29.64 in 10.0 mi West 10.4 mph 20.7 mph N/A   Clear
7:35 AM 17.6 °F 5.7 °F 15.8 °F 93% 29.66 in 10.0 mi West 10.4 mph 18.4 mph N/A   Clear
7:53 AM 19.4 °F 8.6 °F 15.8 °F 86% 29.66 in 10.0 mi West 9.2 mph 16.1 mph N/A   Scattered Clouds
8:15 AM 19.4 °F 9.5 °F 15.8 °F 86% 29.68 in 10.0 mi WSW 8.1 mph - N/A   Mostly Cloudy
8:33 AM 19.4 °F 11.5 °F 17.6 °F 93% 29.69 in 10.0 mi WSW 5.8 mph - N/A   Scattered Clouds
8:55 AM 21.2 °F 12.6 °F 17.6 °F 86% 29.71 in 10.0 mi WSW 6.9 mph - N/A   Mostly Cloudy
9:14 AM 21.2 °F 11.7 °F 17.6 °F 86% 29.71 in 7.0 mi WNW 8.1 mph - N/A Snow Light Snow
9:35 AM 21.2 °F 13.6 °F 17.6 °F 86% 29.72 in 10.0 mi West 5.8 mph - N/A   Mostly Cloudy
9:55 AM 23.0 °F 14.7 °F 17.6 °F 80% 29.73 in 10.0 mi WNW 6.9 mph - N/A   Clear
10:15 AM 23.0 °F 13.1 °F 17.6 °F 80% 29.74 in 10.0 mi West 9.2 mph 19.6 mph N/A   Clear
10:35 AM 23.0 °F 13.1 °F 15.8 °F 74% 29.75 in 10.0 mi West 9.2 mph 18.4 mph N/A   Clear
10:55 AM 23.0 °F 14.7 °F 17.6 °F 80% 29.76 in 10.0 mi West 6.9 mph 17.3 mph N/A   Scattered Clouds
11:15 AM 24.8 °F 16.9 °F 19.4 °F 80% 29.76 in 10.0 mi SW 6.9 mph 23.0 mph N/A   Scattered Clouds
11:34 AM 24.8 °F 15.3 °F 15.8 °F 69% 29.76 in 10.0 mi SW 9.2 mph 18.4 mph N/A   Clear
11:54 AM 26.6 °F 15.7 °F 17.6 °F 69% 29.77 in 10.0 mi West 12.7 mph 19.6 mph N/A   Clear
12:15 PM 28.4 °F 17.0 °F 15.8 °F 59% 29.78 in 10.0 mi West 15.0 mph 20.7 mph N/A   Scattered Clouds
12:33 PM 28.4 °F 19.7 °F 14.0 °F 55% 29.78 in 10.0 mi West 9.2 mph 20.7 mph N/A   Scattered Clouds
12:55 PM 28.4 °F 19.7 °F 14.0 °F 55% 29.78 in 10.0 mi WNW 9.2 mph 20.7 mph N/A   Mostly Cloudy
1:15 PM 23.0 °F 13.1 °F 10.4 °F 59% 29.80 in 10.0 mi West 9.2 mph 16.1 mph N/A   Overcast
1:35 PM 26.6 °F 17.5 °F 17.6 °F 69% 29.80 in 10.0 mi SSW 9.2 mph - N/A   Scattered Clouds
1:55 PM 30.2 °F 21.9 °F 21.2 °F 69% 29.80 in 10.0 mi SW 9.2 mph - N/A   Mostly Cloudy
2:15 PM 30.2 °F 21.9 °F 19.4 °F 64% 29.80 in 7.0 mi SSW 9.2 mph 19.6 mph N/A   Mostly Cloudy
2:34 PM 32.0 °F 25.6 °F 19.4 °F 60% 29.80 in 10.0 mi SW 6.9 mph - N/A   Mostly Cloudy
2:55 PM 26.6 °F 20.0 °F 17.6 °F 69% 29.80 in 10.0 mi SSW 5.8 mph - N/A   Overcast
3:15 PM 28.4 °F 19.7 °F 12.2 °F 51% 29.81 in 10.0 mi West 9.2 mph - N/A   Overcast
3:35 PM 28.4 °F 21.2 °F 12.2 °F 51% 29.81 in 10.0 mi WSW 6.9 mph - N/A   Overcast
3:55 PM 26.6 °F 18.2 °F 8.6 °F 47% 29.81 in 10.0 mi WSW 8.1 mph 19.6 mph N/A   Overcast
4:15 PM 28.4 °F 22.2 °F 10.4 °F 47% 29.81 in 10.0 mi WSW 5.8 mph 18.4 mph N/A   Mostly Cloudy
4:35 PM 28.4 °F 19.7 °F 14.0 °F 55% 29.81 in 10.0 mi SW 9.2 mph 17.3 mph N/A   Mostly Cloudy
4:54 PM 30.2 °F 22.6 °F 15.8 °F 55% 29.82 in 10.0 mi SW 8.1 mph - N/A   Scattered Clouds
5:15 PM 28.4 °F 21.2 °F 19.4 °F 69% 29.82 in 10.0 mi SSW 6.9 mph - N/A   Mostly Cloudy
5:35 PM 28.4 °F 22.2 °F 17.6 °F 64% 29.83 in 10.0 mi SSW 5.8 mph - N/A   Scattered Clouds
5:55 PM 28.4 °F 21.2 °F 14.0 °F 55% 29.83 in 10.0 mi SSW 6.9 mph - N/A   Clear
6:14 PM 28.4 °F 21.2 °F 14.0 °F 55% 29.83 in 10.0 mi SSW 6.9 mph - N/A   Mostly Cloudy
6:34 PM 26.6 °F 18.2 °F 14.0 °F 59% 29.84 in 10.0 mi SSW 8.1 mph - N/A   Overcast
6:54 PM 24.8 °F 15.3 °F 14.0 °F 64% 29.85 in 10.0 mi SSW 9.2 mph 19.6 mph N/A   Scattered Clouds
7:14 PM 23.0 °F 13.9 °F 17.6 °F 80% 29.86 in 10.0 mi SSW 8.1 mph - N/A   Mostly Cloudy
7:35 PM 21.2 °F 12.6 °F 15.8 °F 80% 29.88 in 10.0 mi SW 6.9 mph - N/A   Overcast
7:55 PM 21.2 °F 14.9 °F 17.6 °F 86% 29.88 in 10.0 mi WSW 4.6 mph - N/A   Mostly Cloudy
8:14 PM 19.4 °F 9.5 °F 12.2 °F 74% 29.89 in 10.0 mi West 8.1 mph 16.1 mph N/A   Mostly Cloudy
8:35 PM 19.4 °F 10.4 °F 12.2 °F 74% 29.89 in 10.0 mi West 6.9 mph - N/A   Scattered Clouds
8:55 PM 19.4 °F 9.5 °F 12.2 °F 74% 29.89 in 10.0 mi SW 8.1 mph - N/A   Clear
9:15 PM 19.4 °F 8.6 °F 14.0 °F 80% 29.89 in 10.0 mi SW 9.2 mph - N/A   Scattered Clouds
9:35 PM 17.6 °F 7.3 °F 15.8 °F 93% 29.90 in 10.0 mi WSW 8.1 mph - N/A   Clear
9:55 PM 17.6 °F 7.3 °F 15.8 °F 93% 29.90 in 10.0 mi WSW 8.1 mph - N/A   Scattered Clouds
10:14 PM 19.4 °F 10.4 °F 12.2 °F 74% 29.90 in 10.0 mi WSW 6.9 mph - N/A   Mostly Cloudy
10:35 PM 19.4 °F 7.9 °F 14.0 °F 80% 29.90 in 10.0 mi SW 10.4 mph 17.3 mph N/A   Scattered Clouds
10:55 PM 19.4 °F 10.4 °F 12.2 °F 74% 29.90 in 10.0 mi SW 6.9 mph - N/A   Scattered Clouds
11:15 PM 19.4 °F 9.5 °F 12.2 °F 74% 29.90 in 10.0 mi WSW 8.1 mph - N/A   Scattered Clouds
11:34 PM 19.4 °F 9.5 °F 12.2 °F 74% 29.89 in 10.0 mi WSW 8.1 mph - N/A   Mostly Cloudy
11:55 PM 19.4 °F 10.4 °F 10.4 °F 68% 29.89 in 10.0 mi WSW 6.9 mph - N/A   Mostly Cloudy